Change the Weather History Date:

Tuesday, November 12, 2013

  Actual Average Record
Temperature  
Mean Temperature 36 °F 46 °F  
Max Temperature 45 °F 55 °F 76 °F (1949)
Min Temperature 27 °F 37 °F 18 °F (1950)
Degree Days  
Heating Degree Days 29 19  
Month to date heating degree days 228 205  
Since 1 July heating degree days 628 647  
Cooling Degree Days 0 0  
Month to date cooling degree days 0 0  
Year to date cooling degree days 906 813  
Moisture  
Dew Point 27 °F    
Average Humidity 78    
Maximum Humidity 100    
Minimum Humidity 56    
Precipitation  
Precipitation 0.30 in 0.11 in 1.31 in (1975)
Month to date precipitation 1.33 1.32  
Year to date precipitation 34.31 36.78  
Sea Level Pressure  
Sea Level Pressure 30.31 in    
Wind  
Wind Speed 7 mph (NNW)    
Max Wind Speed 18 mph    
Max Gust Speed 28 mph    
Visibility 5 miles    
Events Fog , Rain , Snow    
T = Trace of Precipitation, MM = Missing Value Source: NWS Daily Summary

Daily Weather History Graph

Daily Weather History Graph

Search for Another Location

Airport or City:

Trip Planner

Search our weather history database for the weather conditions in past years. The results will help you decide how hot, cold, wet, or windy it might be!

Date:

Astronomy

Nov. 12, 2013 Rise Set
Actual Time 7:00 AM EST 5:06 PM EST
Civil Twilight 6:32 AM EST 5:35 PM EST
Nautical Twilight 5:59 AM EST 6:07 PM EST
Astronomical Twilight 5:27 AM EST 6:39 PM EST
Moon 2:19 PM EST (11/12) 1:49 AM EST (11/12)
Length of Visible Light 11h 02m
Length of Day
10h 05m
Waxing Gibbous, 76% of the Moon is Illuminated
Nov 12
Waxing Gibbous
Nov 17
Full
Nov 25
Last Quarter
Dec 2
New
Dec 9
First Quarter

Hourly Weather History & Observations

Time (EST) Temp. Windchill Dew Point Humidity Pressure Visibility Wind Dir Wind Speed Gust Speed Precip Events Conditions
12:53 AM 43.0 °F 39.5 °F 39.9 °F 89% 30.09 in 4.0 mi West 5.8 mph - 0.00 in Rain Light Rain
1:00 AM 42.8 °F 38.6 °F 41.0 °F 93% 30.07 in 2.5 mi Variable 6.9 mph - 0.03 in Rain Light Rain
1:14 AM 41.0 °F 34.7 °F 39.2 °F 93% 30.08 in 4.0 mi NW 10.4 mph - 0.04 in Rain Light Rain
1:21 AM 39.2 °F 32.5 °F 37.4 °F 93% 30.08 in 3.0 mi North 10.4 mph 17.3 mph 0.05 in Rain Light Rain
1:53 AM 34.0 °F 26.0 °F 32.0 °F 92% 30.14 in 7.0 mi North 10.4 mph 19.6 mph 0.08 in   Overcast
2:18 AM 33.8 °F 25.8 °F 32.0 °F 93% 30.14 in 2.0 mi North 10.4 mph - 0.01 in Snow Light Snow
2:25 AM 33.8 °F 27.0 °F 32.0 °F 93% 30.14 in 1.8 mi NNW 8.1 mph - 0.02 in Snow Light Snow
2:53 AM 32.0 °F 24.2 °F 30.9 °F 96% 30.18 in 1.0 mi NNW 9.2 mph - 0.03 in Snow Light Snow
3:36 AM 30.2 °F 22.6 °F 30.2 °F 100% 30.17 in 0.8 mi NNW 8.1 mph 21.9 mph 0.05 in Snow Light Snow
3:53 AM 30.9 °F 22.8 °F 30.0 °F 96% 30.20 in 0.8 mi North 9.2 mph - 0.08 in Snow Light Snow
3:57 AM 30.2 °F 21.9 °F 30.2 °F 100% 30.18 in 1.0 mi North 9.2 mph - 0.00 in Snow Light Snow
4:07 AM 30.2 °F 21.3 °F 30.2 °F 100% 30.18 in 1.0 mi North 10.4 mph - 0.01 in Snow Light Snow
4:26 AM 30.2 °F 20.2 °F 28.4 °F 93% 30.19 in 1.0 mi North 12.7 mph 20.7 mph 0.03 in Snow Light Snow
4:41 AM 30.2 °F 22.6 °F 28.4 °F 93% 30.20 in 1.0 mi North 8.1 mph - 0.04 in Snow Light Snow
4:53 AM 30.0 °F 21.1 °F 28.0 °F 92% 30.23 in 1.0 mi North 10.4 mph 20.7 mph 0.05 in Snow Light Snow
5:15 AM 30.2 °F 23.4 °F 28.4 °F 93% 30.21 in 1.2 mi Variable 6.9 mph - 0.01 in Snow Light Snow
5:23 AM 30.2 °F 23.4 °F 28.4 °F 93% 30.21 in 1.5 mi North 6.9 mph - 0.02 in Snow Light Snow
5:45 AM 28.4 °F 18.0 °F 26.6 °F 93% 30.24 in 0.5 mi North 12.7 mph 25.3 mph 0.03 in Fog , Snow Light Snow
5:53 AM 28.0 °F 18.6 °F 26.1 °F 92% 30.27 in 0.8 mi NNE 10.4 mph 23.0 mph 0.03 in Snow Light Snow
5:57 AM 28.4 °F 18.5 °F 26.6 °F 93% 30.25 in 1.0 mi NNE 11.5 mph 23.0 mph 0.01 in Snow Light Snow
6:29 AM 28.4 °F 20.4 °F 26.6 °F 93% 30.26 in 1.8 mi NNE 8.1 mph - 0.01 in Snow Light Snow
6:37 AM 28.4 °F 22.2 °F 26.6 °F 93% 30.26 in 2.5 mi North 5.8 mph - 0.01 in Snow Light Snow
6:51 AM 28.4 °F 23.3 °F 26.6 °F 93% 30.27 in 3.0 mi North 4.6 mph - 0.01 in Snow Light Snow
6:53 AM 28.9 °F 23.9 °F 27.0 °F 92% 30.30 in 4.0 mi North 4.6 mph - 0.01 in Snow Light Snow
7:09 AM 28.4 °F 24.6 °F 26.6 °F 93% 30.28 in 10.0 mi NNW 3.5 mph - 0.00 in   Overcast
7:53 AM 30.0 °F 25.2 °F 27.0 °F 88% 30.33 in 10.0 mi NNW 4.6 mph - 0.00 in   Overcast
8:50 AM 30.2 °F 23.4 °F 26.6 °F 86% 30.33 in 9.0 mi Variable 6.9 mph - N/A   Overcast
8:53 AM 30.0 °F 23.2 °F 26.1 °F 85% 30.36 in 10.0 mi NNW 6.9 mph - N/A   Overcast
9:53 AM 30.0 °F 24.1 °F 26.1 °F 85% 30.38 in 9.0 mi NNW 5.8 mph - 0.00 in   Overcast
10:01 AM 30.2 °F 22.6 °F 26.6 °F 86% 30.35 in 3.0 mi North 8.1 mph - 0.00 in Snow Light Snow
10:07 AM 30.2 °F 24.3 °F 26.6 °F 86% 30.35 in 1.8 mi North 5.8 mph - 0.00 in Snow Light Snow
10:23 AM 30.2 °F 22.6 °F 26.6 °F 86% 30.35 in 2.0 mi North 8.1 mph - 0.00 in Snow Light Snow
10:31 AM 30.2 °F 24.3 °F 26.6 °F 86% 30.35 in 7.0 mi North 5.8 mph - 0.00 in   Overcast
10:50 AM 30.2 °F 22.6 °F 26.6 °F 86% 30.35 in 2.0 mi NNW 8.1 mph - 0.00 in Snow Light Snow
10:53 AM 30.0 °F 22.4 °F 26.1 °F 85% 30.38 in 1.5 mi NNW 8.1 mph - 0.00 in Snow Light Snow
11:18 AM 28.4 °F 19.7 °F 26.6 °F 93% 30.35 in 0.5 mi North 9.2 mph - 0.01 in Fog , Snow Light Snow
11:27 AM 28.4 °F 20.4 °F 26.6 °F 93% 30.35 in 1.0 mi NNW 8.1 mph 17.3 mph 0.01 in Snow Light Snow
11:30 AM 30.2 °F 22.6 °F 24.8 °F 80% 30.35 in 2.0 mi NNW 8.1 mph 17.3 mph 0.01 in Snow Light Snow
11:37 AM 30.2 °F 23.4 °F 24.8 °F 80% 30.36 in 9.0 mi NNW 6.9 mph - 0.01 in   Mostly Cloudy
11:47 AM 32.0 °F 26.4 °F 24.8 °F 75% 30.35 in 10.0 mi NNW 5.8 mph 16.1 mph 0.01 in   Scattered Clouds
11:53 AM 32.0 °F 23.6 °F 26.1 °F 79% 30.38 in 10.0 mi NNW 10.4 mph - 0.01 in   Mostly Cloudy
12:09 PM 30.2 °F 24.3 °F 24.8 °F 80% 30.35 in 10.0 mi North 5.8 mph - N/A   Mostly Cloudy
12:31 PM 32.0 °F 23.6 °F 21.2 °F 64% 30.35 in 10.0 mi NNW 10.4 mph 17.3 mph N/A   Mostly Cloudy
12:53 PM 32.0 °F 24.2 °F 23.0 °F 69% 30.38 in 10.0 mi NNW 9.2 mph 17.3 mph N/A   Mostly Cloudy
1:53 PM 33.1 °F 26.9 °F 21.0 °F 61% 30.40 in 10.0 mi NNW 6.9 mph - N/A   Mostly Cloudy
2:53 PM 33.1 °F 23.9 °F 19.9 °F 59% 30.41 in 10.0 mi North 12.7 mph - N/A   Mostly Cloudy
3:53 PM 33.1 °F 28.7 °F 19.9 °F 59% 30.43 in 10.0 mi Variable 4.6 mph - N/A   Overcast
4:53 PM 32.0 °F - 19.0 °F 59% 30.44 in 10.0 mi Calm Calm - N/A   Mostly Cloudy
5:53 PM 32.0 °F 28.7 °F 19.9 °F 61% 30.45 in 10.0 mi Variable 3.5 mph - N/A   Overcast
6:53 PM 30.9 °F 23.5 °F 21.0 °F 67% 30.48 in 8.0 mi NW 8.1 mph - 0.00 in Snow Light Snow
6:59 PM 30.2 °F 22.6 °F 23.0 °F 75% 30.43 in 1.8 mi NW 8.1 mph - 0.00 in Snow Light Snow
7:17 PM 28.4 °F 22.2 °F 24.8 °F 86% 30.43 in 3.0 mi Variable 5.8 mph - 0.01 in Snow Light Snow
7:53 PM 28.9 °F - 24.1 °F 82% 30.48 in 5.0 mi Calm Calm - 0.01 in Snow Light Snow
8:20 PM 30.2 °F 26.7 °F 24.8 °F 80% 30.45 in 10.0 mi WNW 3.5 mph - 0.00 in   Overcast
8:50 PM 28.4 °F 23.3 °F 24.8 °F 86% 30.46 in 10.0 mi NW 4.6 mph - 0.00 in   Overcast
8:53 PM 28.9 °F 25.2 °F 24.1 °F 82% 30.50 in 10.0 mi NW 3.5 mph - 0.00 in   Overcast
9:53 PM 28.0 °F 24.2 °F 21.9 °F 78% 30.52 in 10.0 mi Variable 3.5 mph - N/A   Clear
10:53 PM 27.0 °F 21.6 °F 21.0 °F 78% 30.52 in 10.0 mi WNW 4.6 mph - N/A   Clear
11:53 PM 27.0 °F 23.0 °F 19.9 °F 75% 30.53 in 10.0 mi West 3.5 mph - N/A   Overcast